EW5222 Weather Reports


time (UTC)temp
C
wind
direction
speed
KPH
gust
KPH
rain 1hr
cm
rain 24hr
cm
rain mn
cm
humidity
%
barometer
mb
20260906191535 38 238 1.6 9.7 0.00 0.00 0.00 33 1012.6
20260906190035 38 284 3.2 16.1 0.00 0.00 0.00 33 1012.7
20260906184537 38 211 6.4 12.9 0.00 0.00 0.00 32 1012.9
20260906183038 38 340 1.6 16.1 0.00 0.00 0.00 33 1013.0
20260906181542 38 91 4.8 19.3 0.00 0.00 0.00 32 1013.3
20260906180039 38 124 3.2 16.1 0.00 0.00 0.00 34 1013.6
20260906174536 38 142 1.6 8.0 0.00 0.00 0.00 35 1013.9
20260906173034 38 0 1.6 14.5 0.00 0.00 0.00 36 1014.1
20260906171535 38 327 1.6 6.4 0.00 0.00 0.00 36 1014.4
20260906170033 37 240 1.6 4.8 0.00 0.00 0.00 37 1014.6
20260906164534 37 32 3.2 6.4 0.00 0.00 0.00 40 1014.8
20260906163046 36 250 1.6 6.4 0.00 0.00 0.00 42 1014.9
20260906161544 35 262 1.6 8.0 0.00 0.00 0.00 46 1014.9
20260906160036 34 215 4.8 8.0 0.00 0.00 0.00 47 1015.0
20260906154541 33 0 1.6 8.0 0.00 0.00 0.00 50 1014.9
20260906153036 32 277 1.6 6.4 0.00 0.00 0.00 50 1014.8
20260906151537 31 342 1.6 4.8 0.00 0.00 0.00 53 1014.8
20260906150033 30 309 1.6 4.8 0.00 0.00 0.00 55 1014.9
20260906144537 29 297 1.6 4.8 0.00 0.00 0.00 60 1015.0
20260906143033 28 227 1.6 4.8 0.00 0.00 0.00 64 1015.0
20260906141537 27 218 0.0 4.8 0.00 0.00 0.00 68 1014.9
20260906140038 26 209 0.0 3.2 0.00 0.00 0.00 73 1014.9
20260906134535 25 0 0.0 0.0 0.00 0.00 0.00 77 1014.6
20260906133045 25 0 0.0 0.0 0.00 0.00 0.00 80 1014.6
20260906131536 24 0 0.0 0.0 0.00 0.00 0.00 80 1014.4
20260906130039 23 0 0.0 1.6 0.00 0.00 0.00 81 1014.3
20260906124536 23 0 0.0 0.0 0.00 0.00 0.00 81 1014.0
20260906123043 23 0 0.0 0.0 0.00 0.00 0.00 80 1013.8
20260906121543 23 0 0.0 0.0 0.00 0.00 0.00 79 1013.7
20260906120035 23 0 0.0 0.0 0.00 0.00 0.00 78 1013.6
20260906114538 24 0 0.0 0.0 0.00 0.00 0.00 79 1013.6
20260906113034 24 0 0.0 0.0 0.00 0.00 0.00 77 1013.5
20260906111535 24 0 0.0 0.0 0.00 0.00 0.00 77 1013.5
20260906110034 24 0 0.0 0.0 0.00 0.00 0.00 76 1013.5
20260906104534 24 0 0.0 0.0 0.00 0.00 0.00 76 1013.5
20260906103032 25 0 0.0 0.0 0.00 0.00 0.00 75 1013.5
20260906101537 25 0 0.0 0.0 0.00 0.00 0.00 75 1013.3
20260906100041 25 0 0.0 0.0 0.00 0.00 0.00 74 1013.5
20260906094532 25 0 0.0 0.0 0.00 0.00 0.00 74 1013.4
20260906093046 25 0 0.0 0.0 0.00 0.00 0.00 72 1013.2
20260906091535 25 0 0.0 0.0 0.00 0.00 0.00 71 1012.9
20260906090035 25 0 0.0 0.0 0.00 0.00 0.00 71 1013.0
20260906084534 25 0 0.0 6.4 0.00 0.00 0.00 71 1013.0
20260906083034 25 0 0.0 3.2 0.00 0.00 0.00 72 1013.0
20260906081547 25 0 3.2 12.9 0.00 0.00 0.00 73 1012.8
20260906080034 25 0 0.0 0.0 0.00 0.00 0.00 73 1012.6
20260906074550 25 0 0.0 0.0 0.00 0.00 0.00 71 1012.6
20260906073048 25 0 0.0 0.0 0.00 0.00 0.00 70 1012.5
20260906071534 25 0 0.0 0.0 0.00 0.00 0.00 70 1012.7
20260906070039 26 0 0.0 0.0 0.00 0.00 0.00 70 1012.6
20260906064533 26 0 0.0 0.0 0.00 0.00 0.00 72 1012.7
20260906063036 26 0 0.0 0.0 0.00 0.00 0.00 70 1012.7
20260906061536 26 0 0.0 0.0 0.00 0.00 0.00 69 1012.6
20260906060036 26 0 0.0 0.0 0.00 0.00 0.00 68 1012.6
20260906054538 26 0 0.0 0.0 0.00 0.00 0.00 65 1012.7
20260906053041 27 0 0.0 0.0 0.00 0.00 0.00 65 1012.8
20260906051533 27 0 0.0 0.0 0.00 0.00 0.00 65 1012.9
20260906050038 27 0 0.0 0.0 0.00 0.00 0.00 64 1012.9
20260906044535 27 0 0.0 0.0 0.00 0.00 0.00 65 1012.7
20260906043045 28 0 0.0 0.0 0.00 0.00 0.00 63 1012.7
20260906041535 28 0 0.0 0.0 0.00 0.00 0.00 61 1012.8
20260906040039 28 0 0.0 0.0 0.00 0.00 0.00 60 1013.0
20260906034535 29 0 0.0 0.0 0.00 0.00 0.00 58 1012.9
20260906033037 30 0 0.0 0.0 0.00 0.00 0.00 60 1012.7
20260906031535 30 0 0.0 0.0 0.00 0.00 0.00 55 1012.6
20260906030033 30 0 0.0 4.8 0.00 0.00 0.00 56 1012.5
20260906024537 30 0 0.0 0.0 0.00 0.00 0.00 53 1012.3
20260906023049 31 0 0.0 0.0 0.00 0.00 0.00 53 1012.1
20260906021536 31 0 0.0 0.0 0.00 0.00 0.00 49 1011.9
20260906020035 32 0 0.0 0.0 0.00 0.00 0.00 48 1012.0
20260906014546 33 0 0.0 0.0 0.00 0.00 0.00 48 1011.7
20260906013039 33 0 0.0 1.6 0.00 0.00 0.00 42 1011.5
20260906011544 35 0 0.0 0.0 0.00 0.00 0.00 42 1011.4
20260906010037 35 0 0.0 0.0 0.00 0.00 0.00 39 1011.4
20260906004538 36 0 0.0 3.2 0.00 0.00 0.00 36 1011.5
20260906003035 36 136 1.6 4.8 0.00 0.00 0.00 35 1011.5
20260906001532 36 0 0.0 9.7 0.00 0.00 0.00 34 1011.7
20260906000038 37 121 3.2 12.9 0.00 0.00 0.00 34 1011.5
20260905234545 37 134 1.6 12.9 0.00 0.00 0.00 33 1011.5
20260905233033 37 197 6.4 11.3 0.00 0.00 0.00 34 1011.3
20260905231534 37 132 3.2 14.5 0.00 0.00 0.00 33 1011.2
20260905230041 38 270 1.6 9.7 0.00 0.00 0.00 32 1011.2
20260905224538 38 140 3.2 11.3 0.00 0.00 0.00 31 1011.3
20260905223037 39 194 4.8 11.3 0.00 0.00 0.00 31 1011.2
20260905221540 40 191 8.0 19.3 0.00 0.00 0.00 31 1011.2
20260905220035 40 183 6.4 14.5 0.00 0.00 0.00 31 1011.5
20260905214533 40 219 6.4 16.1 0.00 0.00 0.00 30 1011.6
20260905213035 40 190 3.2 12.9 0.00 0.00 0.00 31 1011.8
20260905211533 40 204 3.2 16.1 0.00 0.00 0.00 31 1011.9
20260905210037 39 191 6.4 17.7 0.00 0.00 0.00 32 1012.1
20260905204535 39 174 3.2 17.7 0.00 0.00 0.00 32 1012.4
20260905203036 40 162 6.4 27.4 0.00 0.00 0.00 33 1012.5
20260905201536 39 129 4.8 14.5 0.00 0.00 0.00 33 1012.8
20260905200046 38 162 6.4 16.1 0.00 0.00 0.00 33 1013.0
20260905194533 38 117 6.4 16.1 0.00 0.00 0.00 34 1013.2
20260905193035 38 87 4.8 20.9 0.00 0.00 0.00 34 1013.5